Weather History for Cleveland, TX

Change the Weather History Date:

Tuesday, November 6, 2012

  Actual Average (KCXO) Record (KCXO)
Temperature  
Mean Temperature 58 °F -  
Max Temperature 71 °F 70 °F 86 °F (2005)
Min Temperature 44 °F 49 °F 33 °F (2010)
Degree Days  
Heating Degree Days 8    
Growing Degree Days 8 (Base 50)    
Moisture  
Dew Point 43 °F    
Average Humidity 66    
Maximum Humidity 94    
Minimum Humidity 27    
Precipitation  
Precipitation 0.00 in - - ()
Sea Level Pressure  
Sea Level Pressure 30.10 in    
Wind  
Wind Speed 3 mph (North)    
Max Wind Speed 10 mph    
Max Gust Speed 20 mph    
Visibility 10 miles    
Events      
Averages and records for this station are not official NWS values.
T = Trace of Precipitation, MM = Missing Value Source: NWS Daily Summary

Daily Weather History Graph

Daily Weather History Graph

Search for Another Location

Airport:

Trip Planner

Search our weather history database for the weather conditions in past years. The results will help you decide how hot, cold, wet, or windy it might be!

Date:

Astronomy

Nov. 06, 2012 Rise Set
Actual Time 6:38 AM CST 5:28 PM CST
Civil Twilight 6:13 AM CST 5:53 PM CST
Nautical Twilight 5:45 AM CST 6:21 PM CST
Astronomical Twilight 5:16 AM CST 6:50 PM CST
Moon No Moon Rise 12:34 PM CST (11/6)
Length of Visible Light 11h 39m
Length of Day
10h 49m
Waning Gibbous, 53% of the Moon is Illuminated
Nov 6
Waning Gibbous
Nov 6
Last Quarter
Nov 13
New
Nov 20
First Quarter
Nov 28
Full

Hourly Weather History & Observations

Time (CST) Temp. Dew Point Humidity Pressure Visibility Wind Dir Wind Speed Gust Speed Precip Events Conditions
12:15 AM 53.6 °F 51.8 °F 94% 30.04 in 10.0 mi NNW 3.5 mph - N/A   Clear
12:35 AM 55.4 °F 51.8 °F 88% 30.04 in 10.0 mi NNW 4.6 mph - N/A   Clear
12:55 AM 55.4 °F 51.8 °F 88% 30.05 in 10.0 mi NNW 3.5 mph - N/A   Clear
1:15 AM 53.6 °F 50.0 °F 88% 30.05 in 10.0 mi Calm Calm - N/A   Clear
1:35 AM 51.8 °F 50.0 °F 94% 30.05 in 10.0 mi Calm Calm - N/A   Clear
1:55 AM 53.6 °F 46.4 °F 77% 30.06 in 10.0 mi Calm Calm - N/A   Clear
2:15 AM 51.8 °F 46.4 °F 82% 30.07 in 10.0 mi Calm Calm - N/A   Clear
2:35 AM 53.6 °F 42.8 °F 67% 30.07 in 10.0 mi Calm Calm - N/A   Clear
2:55 AM 53.6 °F 42.8 °F 67% 30.07 in 10.0 mi North 4.6 mph - N/A   Clear
3:15 AM 53.6 °F 42.8 °F 67% 30.07 in 10.0 mi North 4.6 mph - N/A   Clear
3:35 AM 53.6 °F 42.8 °F 67% 30.07 in 10.0 mi North 3.5 mph - N/A   Clear
3:55 AM 53.6 °F 41.0 °F 62% 30.07 in 10.0 mi Calm Calm - N/A   Clear
4:15 AM 51.8 °F 41.0 °F 67% 30.08 in 10.0 mi Calm Calm - N/A   Clear
4:35 AM 51.8 °F 41.0 °F 67% 30.08 in 10.0 mi Calm Calm - N/A   Clear
4:55 AM 46.4 °F 42.8 °F 87% 30.08 in 10.0 mi Calm Calm - N/A   Clear
5:15 AM 46.4 °F 42.8 °F 87% 30.09 in 10.0 mi Calm Calm - N/A   Clear
5:35 AM 46.4 °F 42.8 °F 87% 30.09 in 10.0 mi Calm Calm - N/A   Clear
5:55 AM 46.4 °F 42.8 °F 87% 30.10 in 10.0 mi Calm Calm - N/A   Clear
6:15 AM 44.6 °F 42.8 °F 93% 30.11 in 10.0 mi Calm Calm - N/A   Clear
6:35 AM 44.6 °F 42.8 °F 93% 30.11 in 10.0 mi Calm Calm - N/A   Clear
6:55 AM 46.4 °F 42.8 °F 87% 30.13 in 10.0 mi Calm Calm - N/A   Clear
7:15 AM 46.4 °F 42.8 °F 87% 30.13 in 10.0 mi Calm Calm - N/A   Clear
7:35 AM 50.0 °F 42.8 °F 76% 30.14 in 10.0 mi Calm Calm - N/A   Clear
7:55 AM 51.8 °F 42.8 °F 71% 30.15 in 10.0 mi NNE 4.6 mph - N/A   Clear
8:15 AM 53.6 °F 42.8 °F 67% 30.15 in 10.0 mi NNE 6.9 mph - N/A   Clear
8:55 AM 57.2 °F 42.8 °F 59% 30.16 in 10.0 mi NNE 5.8 mph - N/A   Clear
9:15 AM 59.0 °F 42.8 °F 55% 30.16 in 10.0 mi NNE 8.1 mph - N/A   Clear
9:35 AM 59.0 °F 42.8 °F 55% 30.16 in 10.0 mi NNE 6.9 mph - N/A   Clear
9:55 AM 60.8 °F 41.0 °F 48% 30.16 in 10.0 mi North 6.9 mph - N/A   Clear
10:15 AM 60.8 °F 41.0 °F 48% 30.15 in 10.0 mi NNW 5.8 mph - N/A   Clear
10:35 AM 62.6 °F 41.0 °F 45% 30.15 in 10.0 mi North 3.5 mph - N/A   Clear
10:55 AM 62.6 °F 41.0 °F 45% 30.14 in 10.0 mi North 4.6 mph - N/A   Clear
11:15 AM 64.4 °F 37.4 °F 37% 30.14 in 10.0 mi NNW 8.1 mph - N/A   Clear
11:35 AM 66.2 °F 39.2 °F 37% 30.14 in 10.0 mi NNW 6.9 mph - N/A   Clear
11:55 AM 66.2 °F 37.4 °F 35% 30.13 in 10.0 mi North 8.1 mph - N/A   Clear
12:15 PM 68.0 °F 37.4 °F 33% 30.12 in 10.0 mi NNW 10.4 mph - N/A   Clear
12:35 PM 68.0 °F 35.6 °F 30% 30.11 in 10.0 mi North 6.9 mph 18.4 mph N/A   Clear
12:55 PM 68.0 °F 35.6 °F 30% 30.11 in 10.0 mi NNW 8.1 mph - N/A   Clear
1:15 PM 69.8 °F 35.6 °F 28% 30.10 in 10.0 mi North 4.6 mph - N/A   Clear
1:35 PM 69.8 °F 35.6 °F 28% 30.09 in 10.0 mi North 8.1 mph 19.6 mph N/A   Clear
1:55 PM 69.8 °F 35.6 °F 28% 30.08 in 10.0 mi North 8.1 mph 18.4 mph N/A   Clear
2:15 PM 71.6 °F 35.6 °F 27% 30.08 in 10.0 mi North 5.8 mph - N/A   Clear
2:35 PM 71.6 °F 35.6 °F 27% 30.08 in 10.0 mi North 5.8 mph - N/A   Clear
2:55 PM 71.6 °F 37.4 °F 29% 30.08 in 10.0 mi NNW 5.8 mph - N/A   Clear
3:15 PM 71.6 °F 37.4 °F 29% 30.08 in 10.0 mi North 4.6 mph - N/A   Clear
3:35 PM 71.6 °F 37.4 °F 29% 30.08 in 10.0 mi NNE 3.5 mph - N/A   Clear
4:15 PM 71.6 °F 37.4 °F 29% 30.07 in 10.0 mi NNW 4.6 mph - N/A   Clear
4:35 PM 71.6 °F 37.4 °F 29% 30.07 in 10.0 mi NW 4.6 mph - N/A   Clear
4:55 PM 69.8 °F 39.2 °F 33% 30.07 in 10.0 mi NW 3.5 mph - N/A   Clear
5:15 PM 68.0 °F 44.6 °F 43% 30.07 in 10.0 mi Calm Calm - N/A   Clear
5:35 PM 60.8 °F 48.2 °F 63% 30.07 in 10.0 mi Calm Calm - N/A   Clear
5:55 PM 59.0 °F 48.2 °F 67% 30.08 in 10.0 mi Calm Calm - N/A   Clear
6:15 PM 55.4 °F 48.2 °F 77% 30.09 in 10.0 mi Calm Calm - N/A   Clear
6:35 PM 53.6 °F 48.2 °F 82% 30.10 in 10.0 mi Calm Calm - N/A   Clear
6:55 PM 53.6 °F 48.2 °F 82% 30.10 in 10.0 mi Calm Calm - N/A   Clear
7:15 PM 51.8 °F 46.4 °F 82% 30.10 in 10.0 mi Calm Calm - N/A   Clear
7:35 PM 50.0 °F 46.4 °F 87% 30.10 in 10.0 mi Calm Calm - N/A   Clear
7:55 PM 51.8 °F 46.4 °F 82% 30.10 in 10.0 mi Calm Calm - N/A   Clear
8:15 PM 50.0 °F 46.4 °F 87% 30.10 in 10.0 mi Calm Calm - N/A   Clear
8:55 PM 50.0 °F 46.4 °F 87% 30.11 in 10.0 mi Calm Calm - N/A   Clear
9:15 PM 50.0 °F 46.4 °F 87% 30.11 in 10.0 mi Calm Calm - N/A   Clear
9:35 PM 48.2 °F 44.6 °F 87% 30.11 in 10.0 mi Calm Calm - N/A   Clear
9:55 PM 48.2 °F 44.6 °F 87% 30.12 in 10.0 mi Calm Calm - N/A   Clear
10:15 PM 46.4 °F 44.6 °F 93% 30.12 in 10.0 mi Calm Calm - N/A   Clear
10:35 PM 46.4 °F 44.6 °F 93% 30.12 in 10.0 mi Calm Calm - N/A   Clear
10:55 PM 46.4 °F 44.6 °F 93% 30.12 in 10.0 mi Calm Calm - N/A   Clear
11:15 PM 46.4 °F 44.6 °F 93% 30.11 in 10.0 mi Calm Calm - N/A   Clear
11:35 PM 46.4 °F 44.6 °F 93% 30.11 in 10.0 mi Calm Calm - N/A   Clear
11:55 PM 46.4 °F 44.6 °F 93% 30.11 in 10.0 mi Calm Calm - N/A   Clear